This is the latest recevied weather packets stored in our database for station/object DO1YM-13. If no packets are shown the sender has not sent any weather packets the latest 10 day(s).
| Time | Temp. | Humidity | Pressure | Rain* | Wind** | Luminosity | Snow |
|---|---|---|---|---|---|---|---|
| 1787824247 | 24.44° C | 44% | 1014.6 hPa | 0 mm | - | 633 W/m² | - |
| 1787823948 | 24.44° C | 45% | 1014.9 hPa | 0 mm | - | 628 W/m² | - |
| 1787823647 | 24.44° C | 44% | 1014.9 hPa | 0 mm | - | 628 W/m² | - |
| 1787823348 | 24.44° C | 45% | 1014.9 hPa | 0 mm | - | 624 W/m² | - |
| 1787823048 | 23.89° C | 46% | 1014.9 hPa | 0 mm | - | 615 W/m² | - |
| 1787822747 | 23.89° C | 46% | 1014.9 hPa | 0 mm | - | 610 W/m² | - |
| 1787822448 | 23.89° C | 45% | 1014.9 hPa | 0 mm | - | 601 W/m² | - |
| 1787822147 | 23.33° C | 48% | 1015.2 hPa | 0 mm | - | 626 W/m² | - |
| 1787821848 | 23.89° C | 46% | 1014.9 hPa | 0 mm | - | 661 W/m² | - |
| 1787821547 | 23.89° C | 47% | 1014.9 hPa | 0 mm | - | 626 W/m² | - |
| 1787821254 | 23.89° C | 48% | 1014.9 hPa | 0 mm | - | 636 W/m² | - |
| 1787820949 | 23.33° C | 47% | 1014.9 hPa | 0 mm | - | 590 W/m² | - |
| 1787820648 | 23.33° C | 48% | 1014.9 hPa | 0 mm | - | 569 W/m² | - |
| 1787820347 | 22.78° C | 50% | 1014.9 hPa | 0 mm | - | 507 W/m² | - |
| 1787820048 | 22.22° C | 51% | 1014.9 hPa | 0 mm | - | 494 W/m² | - |
| 1787819747 | 22.78° C | 50% | 1015.2 hPa | 0 mm | - | 483 W/m² | - |
| 1787819447 | 22.78° C | 50% | 1015.2 hPa | 0 mm | - | 530 W/m² | - |
| 1787819148 | 22.22° C | 51% | 1015.2 hPa | 0 mm | - | 551 W/m² | - |
| 1787818851 | 21.67° C | 51% | 1015.6 hPa | 0 mm | - | 483 W/m² | - |
| 1787818548 | 21.67° C | 53% | 1015.6 hPa | 0 mm | - | 428 W/m² | - |
| 1787818248 | 21.67° C | 54% | 1015.2 hPa | 0 mm | - | 411 W/m² | - |
| 1787817947 | 21.11° C | 53% | 1015.6 hPa | 0 mm | - | 476 W/m² | - |
| 1787817648 | 21.11° C | 55% | 1015.2 hPa | 0 mm | - | 377 W/m² | - |
| 1787817348 | 21.11° C | 54% | 1015.2 hPa | 0 mm | - | 365 W/m² | - |
| 1787817048 | 20.56° C | 56% | 1015.6 hPa | 0 mm | - | 347 W/m² | - |
* Rain since midnight (hover to see other rain measurements)
** Current wind speed in m/s (hover to see current wind gust speed)